COSMOS 1275 DEB

Satellite information

Favourite Embed

Satellite Type and Status

DEBRISIN ORBIT

Key statistics

Satellite COSMOS 1275 DEB at a glance.

Uptime

16264

Days in orbit

Revolutions

≈ 13.9

Per day

Orbit

LEO

Low Earth Orbit

Inclination

82.8

Latest

Satellite identification and parameters

Extended collection of information and parameters for COSMOS 1275 DEB.

Object identification

Identified? True

Debris? True

Object name: COSMOS 1275 DEB

International designator: 1981-053TS

Object number (NORAD): 42202

Object ID (CCSDS): 42202

Country: COMMONWEALTH OF INDEPENDENT STATES (CIS)

Current information (Y/N): Y

RCS size: SMALL

Orbital parameters

Period: 103.765 minutes

Inclination: 82.8336 deg

SMA: 7314.66 km

Apoapsis: 974.267 km

Periapsis: 898.783 km

RAAN: 101.0114 deg

Eccentricy: 0.00515981

Argument of periapsis: 96.892 deg

Mean anomaly: 279.7612 deg

Mean motion: 13.87751051 rev/day

Mean motion (dot): 0.00001176 rev/day2

B* drag term: 0.00096855679 1/REarth

Two-line elements (TLE)

Creation date: Dec. 11, 2025, 7:14 p.m.

Reference frame: TEME

Reference center: EARTH

Epoch: Dec. 11, 2025, 2:46 p.m. UTC

TLE line 0: 0 COSMOS 1275 DEB

TLE line 1: 1 42202U 81053TS 25345.61586318 .00001176 00000-0 96856-3 0 9996

TLE line 2: 2 42202 82.8336 101.0114 0051598 96.8920 279.7612 13.87751051609302

Live tracking on map

Real-time ground track for satellite COSMOS 1275 DEB.

In-orbit conjunctions

A list of the most updated potential collisions computed for object COSMOS 1275 DEB.

Target Orbit TCA Probability of collision Miss distance Type
FENGYUN 1C DEB SSO 2024-11-09 13:52:18 0.0002729628 687.0 (m) DEBRIS
CZ-2D DEB SSO 2024-09-13 23:58:48 0.0001348016 162.0 (m) DEBRIS

Associated space launch

Navigation satellite providing location information for the Tsiklon-B navigation system

COSMOS 1275 DEB was lifted into orbit during the mission ‘Kosmos-3M | Parus 27’, on board a Kosmos-3M space rocket.

The launch took place on June 4, 1981, 3:41 p.m. from 132/2.

For more information about the launch, click the button.

Launch to space Kosmos-3M | Parus 27
Kosmos-3M | Parus 27

Agency: N/A

Status: Launch Successful

Launch date: June 4, 1981, 3:41 p.m. UTC

Rocket: Kosmos-3M

Launch pad: 132/2

Location: Plesetsk Cosmodrome, Russian Federation

...

Latest news about this satellite

There are no fresh news available about this satellite. Check back as we update our databases every day.


Newsletter sign-up

Weekly statistics, charts and insights to help you stay on top of the space industry.